Location: *
(46.1833°N, 22.7667°E)
Time: 08:31:59
(UTC+00:00)

Cosmos 2333 - Pass Details

Date: 17 September 2019
Orbit: 831 x 865 km, 70.9° (Epoch: 20 October)

Event Time Altitude Azimuth Distance (km) Brightness Sun altitude
Rises 16:58:39 0° 335° (NNW) 3,400 7.9 -4.5°
Reaches altitude 10° 17:01:07 10° 339° (NNW) 2,466 7.1 -4.9°
Maximum altitude 17:06:44 63° 60° (ENE) 944 4.3 -5.9°
Drops below altitude 10° 17:12:22 10° 142° (SE) 2,474 6.2 -6.8°
Sets 17:14:51 0° 145° (SE) 3,411 6.9 -7.3°
